| time (UTC) | temp C | wind direction | speed KPH | gust KPH | rain 1hr cm | rain 24hr cm | rain mn cm | humidity % | barometer mb |
| 20260502233027 | 12 | 141 | 0.0 | 0.0 | 0.00 | 0.20 | 0.20 | 86 | 1012.0 |
| 20260502231528 | 12 | 141 | 0.0 | 0.0 | 0.00 | 0.20 | 0.20 | 87 | 1012.0 |
| 20260502230024 | 12 | 141 | 0.0 | 0.0 | 0.00 | 0.20 | 0.20 | 87 | 1011.9 |
| 20260502224520 | 12 | 141 | 0.0 | 0.0 | 0.00 | 0.20 | 0.20 | 85 | 1011.9 |
| 20260502223025 | 12 | 141 | 0.0 | 0.0 | 0.00 | 0.20 | 0.20 | 86 | 1011.9 |
| 20260502221525 | 12 | 141 | 0.0 | 0.0 | 0.00 | 0.20 | 0.20 | 84 | 1011.8 |
| 20260502220026 | 12 | 141 | 0.0 | 0.0 | 0.00 | 0.20 | 0.20 | 83 | 1011.8 |
| 20260502214525 | 12 | 139 | 0.0 | 0.0 | 0.00 | 0.20 | 0.20 | 82 | 1011.5 |
| 20260502213035 | 12 | 139 | 0.0 | 0.0 | 0.00 | 0.20 | 0.20 | 82 | 1011.5 |
| 20260502211522 | 12 | 139 | 0.0 | 0.0 | 0.00 | 0.20 | 0.20 | 81 | 1011.5 |
| 20260502210024 | 13 | 139 | 0.0 | 0.0 | 0.00 | 0.20 | 0.20 | 80 | 1011.4 |
| 20260502204527 | 13 | 141 | 0.0 | 0.0 | 0.00 | 0.20 | 0.20 | 82 | 1011.5 |
| 20260502203030 | 13 | 139 | 0.0 | 0.0 | 0.00 | 0.20 | 0.20 | 80 | 1011.5 |
| 20260502201534 | 13 | 142 | 0.0 | 0.0 | 0.00 | 0.20 | 0.20 | 79 | 1011.6 |
| 20260502200007 | 13 | 134 | 0.0 | 0.0 | 0.00 | 0.20 | 0.20 | 79 | 1011.4 |
| 20260502194504 | 13 | 144 | 0.0 | 0.0 | 0.00 | 0.20 | 0.20 | 80 | 1011.7 |
| 20260502193005 | 13 | 276 | 0.0 | 0.0 | 0.00 | 0.20 | 0.20 | 82 | 1011.9 |
| 20260502191504 | 13 | 152 | 0.0 | 0.0 | 0.00 | 0.20 | 0.20 | 81 | 1012.2 |
| 20260502190007 | 13 | 146 | 0.0 | 0.0 | 0.00 | 0.20 | 0.20 | 83 | 1012.2 |
| 20260502184509 | 13 | 94 | 0.0 | 0.0 | 0.00 | 0.20 | 0.20 | 84 | 1012.3 |
| 20260502183006 | 13 | 10 | 0.0 | 1.6 | 0.00 | 0.20 | 0.20 | 84 | 1012.4 |
| 20260502181504 | 12 | 126 | 0.0 | 0.0 | 0.00 | 0.20 | 0.20 | 85 | 1012.5 |
| 20260502163005 | 11 | 182 | 0.0 | 0.0 | 0.00 | 0.20 | 0.20 | 92 | 1013.6 |
| 20260502161510 | 11 | 277 | 0.0 | 0.0 | 0.00 | 0.20 | 0.20 | 92 | 1013.9 |
| 20260502151506 | 11 | 232 | 0.0 | 0.0 | 0.05 | 0.20 | 0.20 | 94 | 1013.6 |
| 20260502123017 | 10 | 142 | 0.0 | 0.0 | 0.03 | 0.03 | 0.03 | 94 | 1012.9 |
| 20260502121515 | 10 | 142 | 0.0 | 0.0 | 0.03 | 0.03 | 0.03 | 94 | 1012.5 |
| 20260502114529 | 10 | 142 | 0.0 | 0.0 | 0.00 | 0.00 | 0.00 | 94 | 1012.6 |
| 20260502113012 | 11 | 142 | 0.0 | 0.0 | 0.00 | 0.00 | 0.00 | 93 | 1012.6 |
| 20260502111516 | 11 | 142 | 0.0 | 0.0 | 0.00 | 0.00 | 0.00 | 93 | 1012.7 |
| 20260502110022 | 11 | 142 | 0.0 | 0.0 | 0.00 | 0.00 | 0.00 | 93 | 1012.9 |
| 20260502104524 | 11 | 142 | 0.0 | 0.0 | 0.00 | 0.00 | 0.00 | 92 | 1013.0 |
| 20260502103015 | 11 | 142 | 0.0 | 0.0 | 0.00 | 0.00 | 0.00 | 92 | 1012.8 |
| 20260502101512 | 11 | 142 | 0.0 | 0.0 | 0.00 | 0.00 | 0.00 | 92 | 1013.0 |
| 20260502091520 | 11 | 142 | 0.0 | 0.0 | 0.00 | 0.00 | 0.00 | 91 | 1013.0 |
| 20260502071506 | 11 | 142 | 0.0 | 0.0 | 0.00 | 0.00 | 0.00 | 93 | 1011.8 |
| 20260502070009 | 11 | 142 | 0.0 | 0.0 | 0.00 | 0.00 | 0.00 | 93 | 1011.8 |
| 20260502064508 | 11 | 142 | 0.0 | 0.0 | 0.00 | 0.00 | 0.00 | 92 | 1011.9 |
| 20260502063012 | 11 | 142 | 0.0 | 0.0 | 0.00 | 0.00 | 0.00 | 92 | 1012.1 |
| 20260502061523 | 11 | 142 | 0.0 | 0.0 | 0.00 | 0.00 | 0.00 | 92 | 1012.2 |
| 20260502060016 | 11 | 142 | 0.0 | 0.0 | 0.00 | 0.00 | 0.00 | 92 | 1012.3 |
| 20260502054512 | 11 | 142 | 0.0 | 0.0 | 0.00 | 0.00 | 0.00 | 92 | 1012.3 |
| 20260502053012 | 11 | 142 | 0.0 | 0.0 | 0.00 | 0.00 | 0.00 | 91 | 1012.5 |
| 20260502051507 | 11 | 142 | 0.0 | 0.0 | 0.00 | 0.00 | 0.00 | 91 | 1012.7 |
| 20260502050015 | 11 | 142 | 0.0 | 0.0 | 0.00 | 0.00 | 0.00 | 91 | 1012.8 |
| 20260502044504 | 11 | 142 | 0.0 | 0.0 | 0.00 | 0.00 | 0.00 | 90 | 1013.0 |
| 20260502043012 | 11 | 142 | 0.0 | 0.0 | 0.00 | 0.00 | 0.00 | 90 | 1013.0 |
| 20260502041529 | 11 | 142 | 0.0 | 0.0 | 0.00 | 0.00 | 0.00 | 90 | 1013.1 |
| 20260502040028 | 11 | 142 | 0.0 | 0.0 | 0.00 | 0.00 | 0.00 | 90 | 1013.2 |
| 20260502034509 | 11 | 142 | 0.0 | 0.0 | 0.00 | 0.00 | 0.00 | 90 | 1013.2 |
| 20260502033020 | 11 | 142 | 0.0 | 0.0 | 0.00 | 0.00 | 0.00 | 89 | 1013.1 |
| 20260502031514 | 11 | 142 | 0.0 | 0.0 | 0.00 | 0.00 | 0.00 | 89 | 1013.2 |
| 20260502030018 | 11 | 142 | 0.0 | 0.0 | 0.00 | 0.00 | 0.00 | 88 | 1013.4 |
| 20260502024519 | 12 | 142 | 0.0 | 0.0 | 0.00 | 0.00 | 0.00 | 87 | 1013.6 |
| 20260502023028 | 12 | 142 | 0.0 | 0.0 | 0.00 | 0.00 | 0.00 | 87 | 1013.4 |
| 20260502021509 | 12 | 142 | 0.0 | 0.0 | 0.00 | 0.00 | 0.00 | 87 | 1013.6 |
| 20260502020011 | 12 | 142 | 0.0 | 0.0 | 0.00 | 0.00 | 0.00 | 87 | 1013.5 |
| 20260502014526 | 12 | 142 | 0.0 | 0.0 | 0.00 | 0.00 | 0.00 | 86 | 1013.5 |
| 20260502013021 | 12 | 142 | 0.0 | 0.0 | 0.00 | 0.00 | 0.00 | 86 | 1013.3 |
| 20260502011508 | 12 | 142 | 0.0 | 0.0 | 0.00 | 0.00 | 0.00 | 87 | 1013.4 |
| 20260502010013 | 11 | 142 | 0.0 | 0.0 | 0.00 | 0.00 | 0.00 | 87 | 1013.0 |
| 20260502004517 | 11 | 142 | 0.0 | 0.0 | 0.00 | 0.00 | 0.00 | 86 | 1013.1 |
| 20260502003014 | 12 | 142 | 0.0 | 0.0 | 0.00 | 0.00 | 0.00 | 85 | 1012.7 |
| 20260502001509 | 12 | 142 | 0.0 | 0.0 | 0.00 | 0.00 | 0.00 | 84 | 1012.6 |
| 20260502000008 | 12 | 142 | 0.0 | 0.0 | 0.00 | 0.00 | 0.00 | 82 | 1012.7 |
| 20260501234516 | 12 | 149 | 0.0 | 0.0 | 0.00 | 0.00 | 0.00 | 80 | 1012.7 |